Location: ?????
(31.8092°N, 35.2590°E)
Time: 17:17:47
(UTC+00:00)

USA 215 - Pass Details

Date: 20 June 2021
Orbit: 1100 x 1107 km, 123.0° (Epoch: 01 August)

Event Time Altitude Azimuth Distance (km) Brightness Sun altitude
Rises 20:26:30 0° 36° (NE) 3,917 6.6 -32.0°
Reaches altitude 10° 20:29:02 10° 33° (NNE) 2,958 5.9 -32.2°
Maximum altitude 20:35:21 55° 317° (NW) 1,298 3.8 -32.6°
Enters shadow 20:38:15 32° 256° (WSW) 1,782 4.3 -32.8°
